FW1255 Weather Reports


time (UTC)temp
F
wind
direction
speed
knots
gust
knots
rain 1hr
in
rain 24hr
in
rain mn
in
humidity
%
barometer
mb
20260505011518 51 306 10.4 17.4 0.00 0.00 0.00 48 1006.3
20260505010017 52 310 12.2 19.1 0.00 0.00 0.00 47 1006.2
20260505004514 52 308 13.9 23.5 0.00 0.00 0.00 47 1005.9
20260505003020 53 360 18.2 27.8 0.00 0.00 0.00 47 1005.5
20260505001508 54 311 17.4 25.2 0.00 0.00 0.00 48 1005.1
20260505000008 55 309 18.2 27.8 0.00 0.00 0.00 44 1004.8
20260504234504 55 309 14.8 20.9 0.00 0.00 0.00 46 1004.6
20260504233005 55 304 13.0 24.3 0.00 0.00 0.00 46 1004.6
20260504231501 56 360 17.4 24.3 0.00 0.00 0.00 44 1004.6
20260504230100 56 305 15.6 23.5 0.00 0.00 0.00 44 1004.4
20260504230002 56 306 15.6 23.5 0.00 0.00 0.00 44 1004.4
20260504224600 56 304 17.4 28.7 0.00 0.00 0.00 43 1004.2
20260504223058 56 291 18.2 28.7 0.00 0.00 0.00 44 1004.1
20260504221556 57 295 18.2 26.1 0.00 0.00 0.00 42 1004.0
20260504220055 57 298 16.5 26.1 0.00 0.00 0.00 47 1003.9
20260504214556 56 289 15.6 26.1 0.00 0.00 0.00 47 1003.8
20260504213053 58 360 20.0 26.9 0.00 0.00 0.00 43 1003.6
20260504211552 60 360 15.6 28.7 0.00 0.00 0.00 42 1003.1
20260504210105 60 306 17.4 26.9 0.00 0.00 0.00 40 1002.8
20260504204651 61 310 17.4 26.1 0.00 0.00 0.00 39 1002.8
20260504203103 62 310 17.4 25.2 0.00 0.00 0.00 37 1002.7
20260504201548 63 298 19.1 27.8 0.00 0.00 0.00 35 1002.5
20260504200048 64 310 18.2 32.2 0.00 0.00 0.00 35 1002.4
20260504194550 65 306 17.4 27.8 0.00 0.00 0.00 38 1002.1
20260504193049 65 360 16.5 26.1 0.00 0.00 0.00 38 1002.1
20260504191545 66 299 16.5 22.6 0.00 0.00 0.00 37 1002.0
20260504190107 66 360 17.4 26.1 0.00 0.00 0.00 36 1002.0
20260504184544 67 333 19.1 23.5 0.00 0.00 0.00 36 1001.9
20260504183043 67 360 13.9 28.7 0.00 0.00 0.00 35 1001.9
20260504181542 66 312 14.8 22.6 0.00 0.00 0.00 36 1001.8
20260504180041 66 298 15.6 26.9 0.00 0.00 0.00 36 1001.5
20260504174539 66 294 15.6 24.3 0.00 0.00 0.00 37 1001.3
20260504173037 66 340 14.8 22.6 0.00 0.00 0.00 37 1001.1
20260504171535 65 313 11.3 20.9 0.00 0.00 0.00 39 1001.1
20260504081601 49 205 4.3 7.0 0.00 0.00 0.00 68 1000.8
20260504044620 53 215 1.7 3.5 0.00 0.00 0.00 58 1003.6
20260504043019 54 216 1.7 3.5 0.00 0.00 0.00 57 1003.8
20260504041515 54 216 0.9 3.5 0.00 0.00 0.00 57 1004.0
20260504040014 55 216 1.7 3.5 0.00 0.00 0.00 54 1004.3
20260504034512 55 248 1.7 6.1 0.00 0.00 0.00 53 1004.6
20260504033009 56 248 3.5 7.0 0.00 0.00 0.00 52 1004.8
20260504031508 58 248 3.5 6.1 0.00 0.00 0.00 49 1005.1
20260504030007 57 249 1.7 4.3 0.00 0.00 0.00 50 1005.3
20260504024507 59 249 2.6 6.1 0.00 0.00 0.00 49 1005.2
20260504023006 58 248 3.5 6.1 0.00 0.00 0.00 49 1005.2
20260504021505 61 251 4.3 6.1 0.00 0.00 0.00 45 1005.2
20260504020004 61 252 4.3 6.1 0.00 0.00 0.00 44 1005.2
20260504014503 63 264 4.3 7.8 0.00 0.00 0.00 42 1005.3
20260504013007 64 265 5.2 7.8 0.00 0.00 0.00 40 1005.3